Location: Asheville, NC
(35.6000°N, 82.5500°W)
Time: 14:06:19
(UTC-04:00)

SEEDS - Pass Details

Date: 11 March 2018
Orbit: 586 x 606 km, 97.5° (Epoch: 18 June)

Event Time Altitude Azimuth Distance (km) Brightness Sun altitude
Rises 19:59:05 0° 169° (S) 2,796 ? -5.8°
Reaches altitude 10° 20:01:13 10° 170° (S) 1,902 ? -6.3°
Maximum altitude 20:05:21 82° 256° (WSW) 598 ? -7.1°
Drops below altitude 10° 20:09:32 10° 347° (NNW) 1,924 ? -8.0°
Sets 20:11:43 0° 348° (NNW) 2,833 ? -8.4°
